Flag for Finland Weather past 2 weeks in Helsinki, Finland

41 °F

Light rain. Overcast.

Feels Like: 32 °F
Forecast: 40 / 43 °F
Wind: 17 mph from Southwest

Location: Helsinki Malmi Airport

Current Time: Nov 29, 2015 at 4:20:35 AM

Latest Report: Nov 29, 2015 at 3:50 AM

Visibility: 5 mi

Pressure: 29.47 "Hg

Humidity: 87%

Dew point: 37 °F

Location of HelsinkiLocation

Historic Weather in Helsinki — Graph


Helsinki temperature yesterday

Maximum temperature yesterday: 46 °F (at 12:20 AM)
Minimum temperature yesterday: 39 °F (at 5:50 PM)
Average temperature yesterday: 43 °F

Past Weeks' High & Low Weather Summary

High46 °F (Nov 14, 4:50 AM)100% (Nov 15, 1:50 AM)29.92 "Hg (Nov 15, 1:50 AM)
Low19 °F (Nov 24, 12:20 AM)69% (Nov 23, 12:50 PM)29.06 "Hg (Nov 21, 12:20 AM)
Average39 °F89%29.51 "Hg
* Reported Nov 14 3:20 AM — Nov 29 3:20 AM, Helsinki, Weather by CustomWeather, © 2015

Note: Actual official high and low records may vary slightly from our data, if they occured in-between our weather recording intervals... More about our weather records


Helsinki weather history for previous 24 hours

Time TempWeatherWind HumidityBarometerVisibility
3:20 AM
Sun, Nov 29
39 °FDrizzle. Overcast.17 mph87%29.47 "Hg3 mi
2:50 AM41 °FOvercast.18 mph81%29.47 "HgN/A
2:20 AM41 °FOvercast.17 mph81%29.45 "HgN/A
1:50 AM41 °FOvercast.20 mph81%29.47 "HgN/A
1:20 AM41 °FOvercast.20 mph81%29.45 "HgN/A
12:50 AM41 °FOvercast.20 mph81%29.47 "HgN/A
12:20 AM41 °FOvercast.15 mph81%29.47 "HgN/A
11:50 PM
Sat, Nov 28
41 °FOvercast.18 mph76%29.47 "HgN/A
11:20 PM41 °FOvercast.18 mph76%29.47 "HgN/A
10:20 PM41 °FOvercast.16 mph76%29.47 "HgN/A
9:50 PM41 °FOvercast.17 mph76%29.47 "HgN/A
9:20 PM41 °FOvercast.16 mph76%29.47 "HgN/A
8:50 PM39 °FPassing clouds.16 mph81%29.47 "HgN/A
8:20 PM39 °FPassing clouds.18 mph81%29.47 "HgN/A
7:50 PM39 °FPassing clouds.18 mph75%29.47 "HgN/A
7:20 PM39 °FPassing clouds.17 mph75%29.50 "HgN/A
6:50 PM39 °FPassing clouds.18 mph75%29.50 "HgN/A
6:20 PM39 °FPassing clouds.20 mph75%29.50 "HgN/A
5:50 PM39 °FPassing clouds.21 mph81%29.50 "HgN/A
5:20 PM41 °FPassing clouds.21 mph76%29.50 "HgN/A
4:50 PM41 °FPassing clouds.20 mph76%29.50 "HgN/A
4:20 PM41 °FPassing clouds.20 mph76%29.50 "HgN/A
3:50 PM41 °FPassing clouds.20 mph76%29.50 "HgN/A
3:20 PM41 °FPartly sunny.21 mph81%29.50 "HgN/A
2:50 PM41 °FPartly sunny.20 mph81%29.53 "HgN/A
2:20 PM43 °FBroken clouds.20 mph76%29.53 "HgN/A
1:50 PM43 °FBroken clouds.18 mph76%29.53 "HgN/A
1:20 PM43 °FBroken clouds.20 mph76%29.53 "HgN/A
12:50 PM43 °FPartly sunny.18 mph76%29.53 "HgN/A
12:20 PM43 °FPartly sunny.20 mph81%29.53 "HgN/A
11:50 AM43 °FPartly sunny.18 mph81%29.53 "HgN/A
11:20 AM43 °FPartly sunny.17 mph81%29.53 "HgN/A
10:50 AM45 °FPartly sunny.18 mph76%29.53 "HgN/A
10:20 AM45 °FPartly sunny.15 mph76%29.53 "HgN/A
9:50 AM45 °FPartly sunny.20 mph81%29.53 "HgN/A
8:20 AM45 °FDrizzle. Low clouds.16 mph93%29.53 "Hg3 mi
7:50 AM45 °FSprinkles. Low clouds.17 mph93%29.53 "Hg3 mi
7:20 AM45 °FFog.17 mph93%29.53 "Hg2 mi
6:50 AM45 °FLow clouds.17 mph93%29.53 "Hg3 mi
6:20 AM45 °FSprinkles. Fog.18 mph93%29.53 "Hg2 mi
5:50 AM45 °FSprinkles. Fog.18 mph93%29.53 "Hg2 mi
5:20 AM45 °FLow clouds.14 mph93%29.53 "Hg2 mi
4:50 AM45 °FLow clouds.15 mph93%29.53 "Hg3 mi
4:20 AM45 °FLow clouds.16 mph93%29.53 "Hg4 mi
Weather by CustomWeather, © 2015

See weather overviewHow to use our weather pages